Change the Weather History Date:

Friday, September 14, 2012

  Actual Average Record
Temperature  
Mean Temperature 34 °F -  
Max Temperature 37 °F 47 °F 62 °F (2011)
Min Temperature 32 °F 38 °F 32 °F (1998)
Degree Days  
Heating Degree Days 30    
Moisture  
Dew Point 32 °F    
Average Humidity 93    
Maximum Humidity 100    
Minimum Humidity 87    
Precipitation  
Precipitation 0.08 in 0.10 in - ()
Sea Level Pressure  
Sea Level Pressure 29.83 in    
Wind  
Wind Speed 57 mph ()    
Max Wind Speed 76 mph    
Max Gust Speed -    
Visibility 0.9 miles    
Events Fog , Rain    
Averages and records for this station are not official NWS values.
T = Trace of Precipitation, MM = Missing Value Source: Averaged Metar Reports

Daily Weather History Graph

Daily Weather History Graph

Search for Another Location

Airport or City:

Trip Planner

Search our weather history database for the weather conditions in past years. The results will help you decide how hot, cold, wet, or windy it might be!

Date:

Astronomy

Sep. 14, 2012 Rise Set
Actual Time 6:55 AM CEST 7:29 PM CEST
Civil Twilight 6:26 AM CEST 7:58 PM CEST
Nautical Twilight 5:51 AM CEST 8:32 PM CEST
Astronomical Twilight 5:16 AM CEST 9:08 PM CEST
Moon 4:58 AM CEST (9/14) 6:17 PM CEST (9/14)
Length of Visible Light 13h 31m
Length of Day
12h 33m
Waning Crescent, 4% of the Moon is Illuminated
Sep 14
Waning Crescent
Sep 16
New
Sep 22
First Quarter
Sep 30
Full
Oct 8
Last Quarter

Hourly Weather History & Observations

Time (CEST) Temp. Windchill Dew Point Humidity Pressure Visibility Wind Dir Wind Speed Gust Speed Precip Events Conditions
12:55 AM 33.8 °F 14.8 °F 32.0 °F 93% 29.80 in 0.0 mi NNE 69.0 mph - N/A Fog , Rain Light Rain
1:55 AM 32.0 °F 12.2 °F 30.2 °F 93% 29.77 in 0.0 mi NNE 69.0 mph - N/A Fog , Rain Light Rain
2:00 AM 33 °F - 31 °F 89%  in 0 mi NNE 69.0 mph - - Rain Light Rain
2:55 AM 32.0 °F 12.2 °F 30.2 °F 93% 29.77 in 0.0 mi NNE 69.0 mph - N/A Fog Fog
3:55 AM 32.0 °F 12.2 °F 30.2 °F 93% 29.77 in 0.0 mi NNE 69.0 mph - N/A Fog Fog
4:55 AM 33.8 °F 15.4 °F 30.2 °F 87% 29.80 in 0.0 mi NNE 63.3 mph - N/A Fog Fog
5:55 AM 32.0 °F 12.4 °F 30.2 °F 93% 29.77 in 0.0 mi NNE 66.7 mph - N/A Fog Fog
6:55 AM 32.0 °F 12.8 °F 30.2 °F 93% 29.77 in 0.0 mi NNE 63.3 mph - N/A Fog Fog
7:55 AM 32.0 °F 13.7 °F 30.2 °F 93% 29.77 in - NNE 55.2 mph - N/A   Unknown
8:00 AM 32 °F - 30 °F 87%  in 0 mi NNE 55.2 mph - - Fog Heavy Fog
8:55 AM 32.0 °F 13.7 °F 30.2 °F 93% 29.80 in 0.0 mi NNE 55.2 mph - N/A Fog Light Freezing Fog
9:55 AM 32.0 °F 13.2 °F 28.4 °F 87% 29.80 in 6.2 mi NNE 59.8 mph - N/A   Mostly Cloudy
10:55 AM 32.0 °F 12.5 °F 28.4 °F 87% 29.80 in 6.2 mi NNE 65.6 mph - N/A   Mostly Cloudy
11:55 AM 32.0 °F 11.5 °F 30.2 °F 93% 29.80 in 6.2 mi NNE 76.0 mph - N/A Rain Rain
12:55 PM 33.8 °F 15.4 °F 32.0 °F 93% 29.83 in 6.2 mi NNE 63.3 mph - N/A   Mostly Cloudy
1:55 PM 33.8 °F 15.4 °F 32.0 °F 93% 29.86 in 0.0 mi NNE 63.3 mph - N/A Fog Fog
2:00 PM 34 °F - 32 °F 90%  in 0 mi NNE 63.3 mph - - Fog Heavy Fog
2:55 PM 35.6 °F 18.0 °F 33.8 °F 93% 29.86 in 0.0 mi NNE 63.3 mph - N/A Fog Fog
3:55 PM 35.6 °F 18.0 °F 35.6 °F 100% 29.86 in 0.0 mi NNE 63.3 mph - N/A Fog Fog
4:55 PM 35.6 °F 18.0 °F 35.6 °F 100% 29.86 in 0.0 mi NNE 63.3 mph - N/A Fog Fog
5:55 PM 35.6 °F 18.0 °F 33.8 °F 93% 29.86 in 0.0 mi NNE 63.3 mph - N/A Fog Fog
6:55 PM 35.6 °F 20.0 °F 35.6 °F 100% 29.89 in 0.0 mi NNE 46.0 mph - N/A Fog Fog
7:55 PM 37.4 °F 21.5 °F 35.6 °F 93% 29.86 in 0.0 mi NNE 55.2 mph - N/A Fog Fog
8:00 PM 37 °F - 36 °F 94%  in 0 mi NNE 55.2 mph - - Fog Heavy Fog
8:55 PM 35.6 °F 19.8 °F 35.6 °F 100% 29.92 in 0.0 mi NNE 47.2 mph - N/A Fog Fog
9:55 PM 37.4 °F 22.1 °F 35.6 °F 93% 29.92 in 0.0 mi NNE 49.5 mph - N/A Fog Fog
10:55 PM 37.4 °F 21.0 °F 35.6 °F 93% 29.92 in 0.0 mi NNE 59.8 mph - N/A Fog Fog
11:55 PM 37.4 °F 21.5 °F 35.6 °F 93% 29.95 in 0.0 mi NNE 55.2 mph - N/A Fog Fog